Regional Weather Roundup
Issued by NWS Binghamton, NY

Home | Current Version | Previous Version | Text Only | Print | Product List | Glossary On
Versions: 1 2 3 4 5 6 7 8 9 10 11 12 13 14 15 16 17 18 19 20 21 22 23 24 25 26 27 28 29 30 31 32 33 34 35 36 37 38 39 40 41 42 43 44 45 46 47 48 49 50
000
ASUS41 KBGM 291610
RWRBGM

REGIONAL WEATHER ROUNDUP
NATIONAL WEATHER SERVICE BINGHAMTON NY
1200 PM EDT FRI JUL 29 2016

Note: "fair" indicates few or no clouds below 12,000 feet with no
significant weather and/or obstructions to visibility.

* = Station(s) that does not report precipitation, such as rain,
snow, etc, also no thunder or fog.

NYZ009-015>018-022>025-036-037-044>046-055>057-062-291700
...Central New York...

CITY           SKY/WX    TMP DP  RH WIND       PRES   REMARKS
Binghamton     MOSUNNY   81  61  50 N10       29.94F
Cortland       FAIR      81  63  54 NE10      29.94S
Dansville      MOSUNNY   81  65  58 VRB7      29.95S
Elmira         SUNNY     85  60  42 NE10      29.92F HX  85
Ithaca         PTSUNNY   79  67  66 NW9       29.94F
Hamilton       PTSUNNY   81  64  57 N6        29.94S
Hornell        CLOUDY    79  64  61 N5        29.99S
Monticello     MOSUNNY   75  68  78 SE3       29.94F
Norwich        MOSUNNY   81  64  57 N5        29.93S
Oneonta        MOSUNNY   77  63  61 NE7       29.95F
Penn Yan       PTSUNNY   80  65  59 VRB5      29.95F
Rome           MOSUNNY   81  66  60 N3        29.92S
Sidney         MOSUNNY   82  70  65 NE6       29.91F HX  86
Syracuse       MOSUNNY   81  66  60 VRB7      29.91F
$$

PAZ038>040-043-044-047-048-072-291700
...Northeast Pennsylvania...

CITY           SKY/WX    TMP DP  RH WIND       PRES   REMARKS
Hazleton       MOSUNNY   77  68  73 NW5       29.96F
Scranton       PTSUNNY   81  68  64 NE8       29.90F
$$
&&
KEY
WCI = Wind Chill Index
VSB = Visibility
HX  = Heat Index
$$



USA.gov is the U.S. government's official web portal to all federal, state and local government web resources and services.